sat.trackr.live / text

‹ back to catalog

2025-313X

NORAD 67269 · 2025-313X

PAYLOAD ACTIVE UNKNOWN

§ Identity

Operator
Country
TBD
Launch date
2025-12-28
Launch site
VOSTO
Launch vehicle
Mass (kg)
RCS (m²)

External: N2YO · Heavens-Above · Gunter

§ Orbital elements

Epoch: 2026-05-25T04:32:24.878976Z

Period
94.48 min
Inclination
97.3970°
Eccentricity
0.0015547
Mean motion
15.24209919 rev/d
Perigee alt
482.5 km
Apogee alt
503.8 km
Semi-major
6,871.3 km
B*
5.3116e-4
RAAN
220.4384°
Arg perigee
85.3245°
Mean anomaly
274.9768°
Rev number
2,246

§ Raw data

2025-313X1 67269U 25313X   26145.18917684  .00012929  00000+0  53116-3 0  99972 67269  97.3970 220.4384 0015547  85.3245 274.9768 15.24209919 22468

JSON: /api/v1/satellites/67269 · /tle

For live sub-satellite position, see the globe view (requires WebGL).

§ Visibility from observer

Set your observer location to see the next 7 days of passes ≥ 10°. The values pass through the URL so the page stays shareable.

No JS? Fill the form by hand. The geolocation button needs JavaScript.